User: anonymous   Login
Location: Hepcat Sky Observatory
(29.9800°N, 95.6500°W)
Time: 14:26:35
(UTC-06:00)
Language:

Cosmos 2151 Rocket - Orbit

View from above orbital plane
View from above orbital plane
View from above satellite
View from above satellite

Ground track
Ground track

The orbit data is extracted from the following two-line orbital elements,

1 21423U 91042B   14324.86761043  .00000648  00000-0  83741-4 0  8621
2 21423 082.4929 119.0517 0019167 088.1831 064.9892 14.79317067263694
Epoch (UTC): 20 November 2014 20:49:21
Eccentricity: 0.0019167
inclination: 82.4929°
perigee height: 618 km
apogee height: 645 km
right ascension of ascending node: 119.0517°
argument of perigee: 88.1831°
revolutions per day: 14.79317067
mean anomaly at epoch: 64.9892°
orbit number at epoch: 26369

The dashed part of the orbit path shows where the satellite is in the earth's shadow,  

DLR